TimeCDT,TemperatureF,Dew PointF,Humidity,Sea Level PressureIn,VisibilityMPH,Wind Direction,Wind SpeedMPH,Gust SpeedMPH,PrecipitationIn,Events,Conditions,WindDirDegrees,DateUTC
12:15 AM,68.9,59.7,72,30.11,10.0,Calm,Calm,-,N/A,,Mostly Cloudy,0,2013-09-18 05:15:00
12:35 AM,68.5,59.5,73,30.11,10.0,SE,3.5,-,N/A,,Mostly Cloudy,130,2013-09-18 05:35:00
12:55 AM,68.2,59.9,75,30.11,10.0,Calm,Calm,-,N/A,,Scattered Clouds,0,2013-09-18 05:55:00
1:15 AM,68.2,59.9,75,30.11,10.0,SE,3.5,-,N/A,Rain,Light Rain,140,2013-09-18 06:15:00
1:35 AM,68.0,59.9,75,30.10,10.0,SE,3.5,-,N/A,,Clear,130,2013-09-18 06:35:00
1:55 AM,67.5,59.9,77,30.11,10.0,Calm,Calm,-,N/A,,Clear,0,2013-09-18 06:55:00
2:15 AM,67.3,59.9,77,30.10,10.0,Calm,Calm,-,N/A,,Clear,0,2013-09-18 07:15:00
2:35 AM,67.5,59.9,77,30.10,10.0,Calm,Calm,-,N/A,,Scattered Clouds,0,2013-09-18 07:35:00
2:55 AM,67.1,59.9,78,30.09,10.0,SE,3.5,-,N/A,,Scattered Clouds,130,2013-09-18 07:55:00
3:15 AM,67.1,59.9,78,30.09,10.0,SE,3.5,-,N/A,,Clear,140,2013-09-18 08:15:00
3:35 AM,67.1,59.9,78,30.09,10.0,SE,3.5,-,N/A,,Clear,140,2013-09-18 08:35:00
3:55 AM,67.1,60.1,78,30.09,10.0,Calm,Calm,-,N/A,Rain,Light Rain,0,2013-09-18 08:55:00
4:15 AM,67.1,60.1,78,30.10,10.0,Calm,Calm,-,N/A,,Overcast,0,2013-09-18 09:15:00
4:35 AM,66.7,60.8,81,30.10,7.0,Calm,Calm,-,N/A,Rain,Rain,0,2013-09-18 09:35:00
4:55 AM,65.3,62.2,90,30.10,10.0,Calm,Calm,-,N/A,Rain,Light Rain,0,2013-09-18 09:55:00
5:15 AM,64.9,63.3,94,30.10,7.0,Calm,Calm,-,N/A,Rain,Light Rain,0,2013-09-18 10:15:00
5:35 AM,64.8,64.2,98,30.11,7.0,Calm,Calm,-,N/A,Rain,Light Rain,0,2013-09-18 10:35:00
5:55 AM,64.6,64.6,100,30.11,3.0,Calm,Calm,-,N/A,Rain,Rain,0,2013-09-18 10:55:00
6:15 AM,64.6,64.6,100,30.12,3.0,Calm,Calm,-,0.01,Rain,Rain,0,2013-09-18 11:15:00
6:35 AM,64.6,64.6,100,30.12,2.0,Calm,Calm,-,0.05,Rain,Heavy Rain,0,2013-09-18 11:35:00
6:55 AM,64.6,64.6,100,30.12,3.0,Calm,Calm,-,0.07,Rain,Light Rain,0,2013-09-18 11:55:00
7:15 AM,64.4,64.4,100,30.12,3.0,Calm,Calm,-,N/A,Rain,Rain,0,2013-09-18 12:15:00
7:35 AM,64.9,64.9,100,30.13,2.5,Calm,Calm,-,0.01,Rain,Heavy Rain,0,2013-09-18 12:35:00
7:55 AM,65.3,65.3,100,30.12,1.5,SE,5.8,-,0.08,Rain,Rain,140,2013-09-18 12:55:00
8:15 AM,65.7,65.7,100,30.12,1.8,SE,4.6,-,N/A,Rain,Light Rain,130,2013-09-18 13:15:00
8:35 AM,66.2,66.2,100,30.13,1.8,SSE,4.6,-,N/A,Rain,Light Rain,160,2013-09-18 13:35:00
8:55 AM,66.7,66.7,100,30.12,1.8,ESE,4.6,-,0.02,Rain,Heavy Rain,120,2013-09-18 13:55:00
9:15 AM,67.3,67.3,100,30.13,3.0,Calm,Calm,-,N/A,,Overcast,0,2013-09-18 14:15:00
9:35 AM,68.0,68.0,100,30.13,2.0,East,3.5,-,N/A,Rain,Light Rain,100,2013-09-18 14:35:00
9:55 AM,68.0,68.0,100,30.12,2.5,SE,4.6,-,N/A,Rain,Rain,130,2013-09-18 14:55:00
10:15 AM,68.5,68.5,100,30.13,3.0,East,3.5,-,N/A,,Overcast,90,2013-09-18 15:15:00
10:35 AM,69.4,69.4,100,30.12,5.0,Calm,Calm,-,N/A,,Mostly Cloudy,0,2013-09-18 15:35:00
10:55 AM,71.6,69.6,93,30.12,7.0,SE,6.9,-,N/A,,Scattered Clouds,130,2013-09-18 15:55:00
11:15 AM,73.4,69.6,88,30.11,10.0,SE,5.8,-,N/A,,Mostly Cloudy,140,2013-09-18 16:15:00
11:35 AM,74.1,70.0,87,30.11,10.0,SE,4.6,-,N/A,,Scattered Clouds,130,2013-09-18 16:35:00
11:55 AM,75.2,69.4,82,30.10,10.0,SE,8.1,-,N/A,,Mostly Cloudy,130,2013-09-18 16:55:00
12:15 PM,77.0,70.2,79,30.09,10.0,SE,5.8,-,N/A,,Mostly Cloudy,130,2013-09-18 17:15:00
12:35 PM,77.2,69.6,77,30.09,10.0,SSE,4.6,-,N/A,,Scattered Clouds,160,2013-09-18 17:35:00
12:55 PM,79.2,70.5,75,30.09,10.0,SE,3.5,-,N/A,,Mostly Cloudy,130,2013-09-18 17:55:00
1:15 PM,77.9,70.0,76,30.08,10.0,SSE,4.6,-,N/A,,Scattered Clouds,150,2013-09-18 18:15:00
1:35 PM,79.2,70.5,75,30.07,10.0,SSE,6.9,-,N/A,,Scattered Clouds,160,2013-09-18 18:35:00
1:55 PM,80.8,70.7,71,30.06,10.0,South,6.9,-,N/A,,Mostly Cloudy,180,2013-09-18 18:55:00
2:15 PM,80.6,70.3,71,30.05,10.0,SSE,4.6,-,N/A,,Scattered Clouds,150,2013-09-18 19:15:00
2:35 PM,81.5,69.8,67,30.04,10.0,SE,6.9,-,N/A,,Clear,140,2013-09-18 19:35:00
2:55 PM,81.5,70.3,69,30.03,10.0,SE,5.8,-,N/A,,Clear,140,2013-09-18 19:55:00
3:15 PM,82.4,69.8,66,30.03,10.0,South,6.9,-,N/A,,Clear,170,2013-09-18 20:15:00
3:35 PM,82.9,70.5,66,30.02,10.0,SSE,5.8,-,N/A,,Clear,160,2013-09-18 20:35:00
3:55 PM,82.9,70.9,67,30.02,10.0,SSE,5.8,-,N/A,,Clear,160,2013-09-18 20:55:00
4:15 PM,83.5,71.2,66,30.01,10.0,SSE,4.6,-,N/A,,Clear,150,2013-09-18 21:15:00
4:35 PM,83.8,71.4,66,30.01,10.0,SSE,3.5,-,N/A,,Clear,150,2013-09-18 21:35:00
4:55 PM,84.2,71.4,65,30.00,10.0,ESE,3.5,-,N/A,,Clear,120,2013-09-18 21:55:00
5:15 PM,84.2,70.9,64,30.00,10.0,SSE,5.8,-,N/A,,Clear,160,2013-09-18 22:15:00
5:35 PM,83.8,68.9,61,29.99,10.0,SSE,4.6,-,N/A,,Clear,160,2013-09-18 22:35:00
5:55 PM,83.5,69.1,62,30.00,10.0,Calm,Calm,-,N/A,,Clear,0,2013-09-18 22:55:00
6:15 PM,83.8,68.9,61,30.00,10.0,South,4.6,-,N/A,,Clear,180,2013-09-18 23:15:00
6:35 PM,82.4,69.1,64,30.00,10.0,South,4.6,-,N/A,,Clear,170,2013-09-18 23:35:00
6:55 PM,81.0,68.9,67,30.00,10.0,SSE,3.5,-,N/A,,Clear,160,2013-09-18 23:55:00
7:15 PM,78.6,69.3,73,30.00,10.0,Calm,Calm,-,N/A,,Clear,0,2013-09-19 00:15:00
7:35 PM,77.7,69.8,76,30.00,10.0,Calm,Calm,-,N/A,,Clear,0,2013-09-19 00:35:00
7:55 PM,77.9,69.8,76,30.01,10.0,SE,3.5,-,N/A,,Clear,140,2013-09-19 00:55:00
8:15 PM,77.4,69.8,77,30.01,10.0,SE,3.5,-,N/A,,Clear,140,2013-09-19 01:15:00
8:35 PM,77.4,69.8,77,30.01,10.0,SSE,4.6,-,N/A,,Clear,150,2013-09-19 01:35:00
8:55 PM,77.5,70.0,77,30.01,10.0,SSE,5.8,-,N/A,,Clear,150,2013-09-19 01:55:00
9:15 PM,77.4,70.2,78,30.01,10.0,SSE,5.8,-,N/A,,Clear,160,2013-09-19 02:15:00
9:35 PM,77.0,70.3,80,30.02,10.0,South,5.8,-,N/A,,Clear,170,2013-09-19 02:35:00
9:55 PM,76.6,70.7,82,30.02,10.0,SSE,4.6,-,N/A,,Clear,160,2013-09-19 02:55:00
10:15 PM,76.6,70.9,82,30.02,10.0,SSE,5.8,-,N/A,,Clear,160,2013-09-19 03:15:00
10:35 PM,76.1,70.9,84,30.02,7.0,SSE,5.8,-,N/A,,Clear,160,2013-09-19 03:35:00
10:55 PM,76.1,70.9,84,30.03,7.0,SSE,5.8,-,N/A,,Clear,160,2013-09-19 03:55:00
11:15 PM,76.1,71.1,84,30.02,7.0,SSE,6.9,-,N/A,,Clear,160,2013-09-19 04:15:00
11:35 PM,75.7,70.9,85,30.03,7.0,South,6.9,-,N/A,,Clear,170,2013-09-19 04:35:00
11:55 PM,75.4,70.9,86,30.02,7.0,South,8.1,-,N/A,,Clear,180,2013-09-19 04:55:00